sat.trackr.live / text

‹ back to catalog

GEESAT-4 02

NORAD 65120 · 2025-170B

PAYLOAD ACTIVE UNKNOWN

§ Identity

Operator
Country
PRC
Launch date
2025-08-08
Launch site
YSLA
Launch vehicle
Mass (kg)
RCS (m²)

External: N2YO · Heavens-Above · Gunter

§ Orbital elements

Epoch: 2026-09-21T21:45:46.192896Z

Period
97.02 min
Inclination
49.9851°
Eccentricity
0.0009681
Mean motion
14.84281650 rev/d
Perigee alt
609.1 km
Apogee alt
622.6 km
Semi-major
6,994.0 km
B*
1.3887e-4
RAAN
85.5777°
Arg perigee
100.8825°
Mean anomaly
259.3203°
Rev number
6,082

§ Raw data

GEESAT-4 021 65120U 25170B   26264.90678464  .00000948  00000+0  13887-3 0  99932 65120  49.9851  85.5777 0009681 100.8825 259.3203 14.84281650 60828

JSON: /api/v1/satellites/65120 · /tle

For live sub-satellite position, see the globe view (requires WebGL).

§ Visibility from observer

Set your observer location to see the next 7 days of passes ≥ 10°. The values pass through the URL so the page stays shareable.

No JS? Fill the form by hand. The geolocation button needs JavaScript.